Flag for Canada Weather past 2 weeks in Morden, Manitoba, Canada

Now
55 °F

Cool.


Feels Like: 53 °F
Forecast: 49 / 63 °F
Wind: 7 mph from Northeast

Location: Morden CDA CS

Current Time: Jun 3, 2015 at 1:09:47 AM

Latest Report: Jun 3, 2015 at 12:00 AM


Visibility: N/A

Pressure: 29.86 "Hg

Humidity: 54%

Dew point: 38 °F

Location of MordenLocation

Historic Weather in Morden — Graph

°F

Morden temperature yesterday

Maximum temperature yesterday: 63 °F (at 4:00 PM)
Minimum temperature yesterday: 52 °F (at 5:00 AM)
Average temperature yesterday: 59 °F

Past Weeks' High & Low Weather Summary

 TemperatureHumidityPressure
High84 °F (May 26, 3:00 PM)98% (Jun 2, 9:00 PM)30.48 "Hg (Jun 2, 9:00 PM)
Low29 °F (May 30, 5:00 AM)14% (May 23, 4:00 PM)29.72 "Hg (May 25, 5:00 PM)
Average59 °F51%30.06 "Hg
* Reported Midnight between May 18 and May 19 — Midnight between Jun 2 and Jun 3, Morden, Weather by CustomWeather, © 2015

Note: Actual official high and low records may vary slightly from our data, if they occured in-between our weather recording intervals... More about our weather records

Advertising

Morden weather history for previous 24 hours

 ConditionsComfort  
Time TempWeatherWind HumidityBarometerVisibility
12:00 AM
Wed, Jun 3
55 °FCool.7 mph54%29.86 "HgN/A
11:00 PM
Tue, Jun 2
56 °FRefreshingly cool.13 mph53%29.84 "HgN/A
10:00 PM59 °FCool.10 mph79%29.83 "HgN/A
9:00 PM60 °FCool.6 mph98%29.83 "HgN/A
8:00 PM62 °FCool.5 mph92%29.83 "HgN/A
7:00 PM63 °FMild.6 mph90%29.83 "HgN/A
6:00 PM62 °FCool.6 mph94%29.83 "HgN/A
5:00 PM62 °FCool.8 mph91%29.82 "HgN/A
4:00 PM63 °FMild.9 mph90%29.83 "HgN/A
3:00 PM62 °FCool.7 mph92%29.84 "HgN/A
2:00 PM62 °FCool.9 mph90%29.85 "HgN/A
1:00 PM61 °FCool.9 mph86%29.85 "HgN/A
12:00 PM61 °FCool.9 mph90%29.85 "HgN/A
11:00 AM62 °FCool.8 mph83%29.84 "HgN/A
10:00 AM61 °FCool.9 mph88%29.84 "HgN/A
9:00 AM60 °FCool.3 mph91%29.83 "HgN/A
8:00 AM56 °FCool.3 mph95%29.84 "HgN/A
7:00 AM55 °FCool.No wind95%29.83 "HgN/A
6:00 AM53 °FCool.2 mph97%29.83 "HgN/A
5:00 AM52 °FCool.1 mph96%29.82 "HgN/A
4:00 AM53 °FCool.1 mph96%29.80 "HgN/A
3:00 AM55 °FCool.5 mph91%29.81 "HgN/A
2:00 AM57 °FCool.6 mph88%29.82 "HgN/A
1:00 AM58 °FCool.7 mph85%29.83 "HgN/A
Weather by CustomWeather, © 2015

See weather overviewHow to use our weather pages